Location: Linz
(48.3300°N, 14.3000°E)
Time: 01:31:21
(UTC+01:00)

YUBILEINY - Pass Details

Date: 26 February 2019
Orbit: 1479 x 1508 km, 82.5° (Epoch: 21 March)

Event Time Altitude Azimuth Distance (km) Brightness Sun altitude
Rises 04:08:14 0° 181° (S) 4,586 ? -27.5°
Reaches altitude 10° 04:11:06 10° 180° (S) 3,610 ? -27.1°
Maximum altitude 04:19:45 79° 96° (E) 1,512 ? -25.7°
Drops below altitude 10° 04:28:29 10° 12° (NNE) 3,642 ? -24.3°
Sets 04:31:23 0° 11° (NNE) 4,629 ? -23.8°
